Terminal Aerodrome Forecast
Issued by NWS

Home | Current Version | Previous Version | Text Only | Print | Product List | Glossary On
Versions: 1 2 3 4 5 6 7 8 9 10 11 12 13 14 15 16 17 18 19 20
000
FTUS43 KEAX 251100
TAFSTJ
TAF
KSTJ 251121Z 2512/2612 17010KT P6SM SKC WS010/21030KT
     FM251500 18018G28KT P6SM SCT250
     FM252300 17014KT P6SM SCT200=

USA.gov is the U.S. government's official web portal to all federal, state and local government web resources and services.